![]() |
EMODnet Physics ERDDAP
Easier access to scientific data |
log in|
Brought to you by EMODnet Physics |
| Dataset Title: | NDBC - Collection of dew point temperature (DEWT) TimeSeries - IN SITU MultiPointTimeSeriesObservation
|
| Institution: | NDBC (Dataset ID: TS_DEWT_NDBC) |
| Information: | Summary
| License
| FGDC
| ISO 19115
| Metadata
| Background
| Subset
| Data Access Form
| Make a graph
|
| Name | Last modified | Size | Description | |
|---|---|---|---|---|
| Parent Directory | - | - | ||
| GRMM4_TS_DEWT_012007.nc | 14-Oct-2024 13:46 | 1474901 | ||
| GRMM4_TS_DEWT_012008.nc | 14-Oct-2024 14:40 | 1473988 | ||
| GRMM4_TS_DEWT_012009.nc | 14-Oct-2024 15:40 | 1471217 | ||
| GRMM4_TS_DEWT_012010.nc | 14-Oct-2024 16:35 | 1472891 | ||
| GRMM4_TS_DEWT_012011.nc | 14-Oct-2024 17:43 | 1626972 | ||
| GRMM4_TS_DEWT_012012.nc | 14-Oct-2024 18:40 | 1626946 | ||
| GRMM4_TS_DEWT_012015.nc | 14-Oct-2024 19:57 | 1626981 | ||
| GRMM4_TS_DEWT_012016.nc | 14-Oct-2024 20:59 | 1625804 | ||
| GRMM4_TS_DEWT_012017.nc | 14-Oct-2024 21:48 | 1626953 | ||
| GRMM4_TS_DEWT_012018.nc | 14-Oct-2024 22:53 | 1626603 | ||
| GRMM4_TS_DEWT_012019.nc | 14-Oct-2024 23:59 | 1626888 | ||
| GRMM4_TS_DEWT_012020.nc | 15-Oct-2024 01:04 | 1626811 | ||
| GRMM4_TS_DEWT_012021.nc | 15-Oct-2024 02:08 | 1473759 | ||
| GRMM4_TS_DEWT_012022.nc | 15-Oct-2024 03:15 | 1626918 | ||
| GRMM4_TS_DEWT_012023.nc | 15-Oct-2024 04:13 | 1626932 | ||
| GRMM4_TS_DEWT_022007.nc | 14-Oct-2024 13:50 | 1477407 | ||
| GRMM4_TS_DEWT_022008.nc | 14-Oct-2024 14:45 | 1626735 | ||
| GRMM4_TS_DEWT_022009.nc | 14-Oct-2024 15:44 | 1626626 | ||
| GRMM4_TS_DEWT_022010.nc | 14-Oct-2024 16:41 | 1471416 | ||
| GRMM4_TS_DEWT_022011.nc | 14-Oct-2024 17:47 | 1463667 | ||
| GRMM4_TS_DEWT_022012.nc | 14-Oct-2024 18:45 | 1468471 | ||
| GRMM4_TS_DEWT_022015.nc | 14-Oct-2024 20:03 | 1469138 | ||
| GRMM4_TS_DEWT_022016.nc | 14-Oct-2024 21:04 | 1476941 | ||
| GRMM4_TS_DEWT_022017.nc | 14-Oct-2024 21:52 | 1475990 | ||
| GRMM4_TS_DEWT_022018.nc | 14-Oct-2024 22:58 | 1477085 | ||
| GRMM4_TS_DEWT_022019.nc | 15-Oct-2024 00:04 | 1476755 | ||
| GRMM4_TS_DEWT_022020.nc | 15-Oct-2024 01:10 | 1477065 | ||
| GRMM4_TS_DEWT_022021.nc | 15-Oct-2024 02:14 | 1476378 | ||
| GRMM4_TS_DEWT_022022.nc | 15-Oct-2024 03:20 | 1476398 | ||
| GRMM4_TS_DEWT_022023.nc | 15-Oct-2024 04:17 | 1477032 | ||
| GRMM4_TS_DEWT_032007.nc | 14-Oct-2024 13:54 | 1475751 | ||
| GRMM4_TS_DEWT_032008.nc | 14-Oct-2024 14:50 | 1476664 | ||
| GRMM4_TS_DEWT_032009.nc | 14-Oct-2024 15:48 | 1477050 | ||
| GRMM4_TS_DEWT_032010.nc | 14-Oct-2024 16:45 | 1476434 | ||
| GRMM4_TS_DEWT_032011.nc | 14-Oct-2024 17:52 | 1476738 | ||
| GRMM4_TS_DEWT_032012.nc | 14-Oct-2024 18:51 | 1476048 | ||
| GRMM4_TS_DEWT_032015.nc | 14-Oct-2024 20:07 | 1475991 | ||
| GRMM4_TS_DEWT_032016.nc | 14-Oct-2024 21:09 | 1475529 | ||
| GRMM4_TS_DEWT_032017.nc | 14-Oct-2024 21:56 | 1474911 | ||
| GRMM4_TS_DEWT_032018.nc | 14-Oct-2024 23:03 | 1461036 | ||
| GRMM4_TS_DEWT_032019.nc | 15-Oct-2024 00:09 | 1626871 | ||
| GRMM4_TS_DEWT_032020.nc | 15-Oct-2024 01:15 | 1626954 | ||
| GRMM4_TS_DEWT_032021.nc | 15-Oct-2024 02:20 | 1626838 | ||
| GRMM4_TS_DEWT_032022.nc | 15-Oct-2024 03:25 | 1626381 | ||
| GRMM4_TS_DEWT_032023.nc | 15-Oct-2024 04:21 | 1626938 | ||
| GRMM4_TS_DEWT_042007.nc | 14-Oct-2024 13:58 | 1624845 | ||
| GRMM4_TS_DEWT_042008.nc | 14-Oct-2024 14:55 | 1477652 | ||
| GRMM4_TS_DEWT_042009.nc | 14-Oct-2024 15:52 | 1476355 | ||
| GRMM4_TS_DEWT_042010.nc | 14-Oct-2024 16:52 | 1625821 | ||
| GRMM4_TS_DEWT_042015.nc | 14-Oct-2024 20:11 | 1626697 | ||
| GRMM4_TS_DEWT_042016.nc | 14-Oct-2024 21:15 | 1474580 | ||
| GRMM4_TS_DEWT_042017.nc | 14-Oct-2024 22:03 | 1626522 | ||
| GRMM4_TS_DEWT_042018.nc | 14-Oct-2024 23:08 | 1626843 | ||
| GRMM4_TS_DEWT_042019.nc | 15-Oct-2024 00:14 | 1626586 | ||
| GRMM4_TS_DEWT_042020.nc | 15-Oct-2024 01:21 | 1473850 | ||
| GRMM4_TS_DEWT_042021.nc | 15-Oct-2024 02:25 | 1470386 | ||
| GRMM4_TS_DEWT_042022.nc | 15-Oct-2024 03:30 | 1475102 | ||
| GRMM4_TS_DEWT_042023.nc | 15-Oct-2024 04:26 | 1626933 | ||
| GRMM4_TS_DEWT_052007.nc | 14-Oct-2024 14:02 | 1476389 | ||
| GRMM4_TS_DEWT_052008.nc | 14-Oct-2024 15:00 | 1626488 | ||
| GRMM4_TS_DEWT_052009.nc | 14-Oct-2024 15:56 | 1626363 | ||
| GRMM4_TS_DEWT_052010.nc | 14-Oct-2024 16:58 | 1626384 | ||
| GRMM4_TS_DEWT_052011.nc | 14-Oct-2024 17:57 | 1626927 | ||
| GRMM4_TS_DEWT_052012.nc | 14-Oct-2024 18:57 | 1476869 | ||
| GRMM4_TS_DEWT_052015.nc | 14-Oct-2024 20:16 | 1625968 | ||
| GRMM4_TS_DEWT_052017.nc | 14-Oct-2024 22:08 | 1626907 | ||
| GRMM4_TS_DEWT_052018.nc | 14-Oct-2024 23:15 | 1625513 | ||
| GRMM4_TS_DEWT_052019.nc | 15-Oct-2024 00:19 | 1626812 | ||
| GRMM4_TS_DEWT_052020.nc | 15-Oct-2024 01:27 | 1624546 | ||
| GRMM4_TS_DEWT_052021.nc | 15-Oct-2024 02:31 | 1626912 | ||
| GRMM4_TS_DEWT_052022.nc | 15-Oct-2024 03:35 | 1626604 | ||
| GRMM4_TS_DEWT_052023.nc | 15-Oct-2024 04:32 | 1626308 | ||
| GRMM4_TS_DEWT_062007.nc | 14-Oct-2024 14:07 | 1475542 | ||
| GRMM4_TS_DEWT_062008.nc | 14-Oct-2024 15:05 | 1473766 | ||
| GRMM4_TS_DEWT_062009.nc | 14-Oct-2024 16:00 | 1467944 | ||
| GRMM4_TS_DEWT_062010.nc | 14-Oct-2024 17:05 | 1477044 | ||
| GRMM4_TS_DEWT_062011.nc | 14-Oct-2024 18:02 | 1471583 | ||
| GRMM4_TS_DEWT_062012.nc | 14-Oct-2024 19:03 | 1477085 | ||
| GRMM4_TS_DEWT_062015.nc | 14-Oct-2024 20:21 | 1477099 | ||
| GRMM4_TS_DEWT_062017.nc | 14-Oct-2024 22:14 | 1477093 | ||
| GRMM4_TS_DEWT_062018.nc | 14-Oct-2024 23:20 | 1476683 | ||
| GRMM4_TS_DEWT_062019.nc | 15-Oct-2024 00:24 | 1476958 | ||
| GRMM4_TS_DEWT_062020.nc | 15-Oct-2024 01:34 | 1476728 | ||
| GRMM4_TS_DEWT_062021.nc | 15-Oct-2024 02:37 | 1476992 | ||
| GRMM4_TS_DEWT_062022.nc | 15-Oct-2024 03:41 | 1477054 | ||
| GRMM4_TS_DEWT_062023.nc | 15-Oct-2024 04:37 | 1477093 | ||
| GRMM4_TS_DEWT_072007.nc | 14-Oct-2024 14:12 | 1476174 | ||
| GRMM4_TS_DEWT_072008.nc | 14-Oct-2024 15:10 | 1476859 | ||
| GRMM4_TS_DEWT_072009.nc | 14-Oct-2024 16:04 | 1476958 | ||
| GRMM4_TS_DEWT_072010.nc | 14-Oct-2024 17:09 | 1476073 | ||
| GRMM4_TS_DEWT_072011.nc | 14-Oct-2024 18:08 | 1475823 | ||
| GRMM4_TS_DEWT_072012.nc | 14-Oct-2024 19:09 | 1477416 | ||
| GRMM4_TS_DEWT_072015.nc | 14-Oct-2024 20:27 | 1468087 | ||
| GRMM4_TS_DEWT_072017.nc | 14-Oct-2024 22:18 | 1626868 | ||
| GRMM4_TS_DEWT_072018.nc | 14-Oct-2024 23:26 | 1626956 | ||
| GRMM4_TS_DEWT_072019.nc | 15-Oct-2024 00:31 | 1624279 | ||
| GRMM4_TS_DEWT_072020.nc | 15-Oct-2024 01:39 | 1626945 | ||
| GRMM4_TS_DEWT_072021.nc | 15-Oct-2024 02:42 | 1626285 | ||
| GRMM4_TS_DEWT_072022.nc | 15-Oct-2024 03:45 | 1626573 | ||
| GRMM4_TS_DEWT_072023.nc | 15-Oct-2024 04:42 | 1626513 | ||
| GRMM4_TS_DEWT_082006.nc | 14-Oct-2024 13:20 | 1626674 | ||
| GRMM4_TS_DEWT_082007.nc | 14-Oct-2024 14:16 | 1626642 | ||
| GRMM4_TS_DEWT_082008.nc | 14-Oct-2024 15:16 | 1626827 | ||
| GRMM4_TS_DEWT_082009.nc | 14-Oct-2024 16:10 | 1626627 | ||
| GRMM4_TS_DEWT_082010.nc | 14-Oct-2024 17:14 | 1625928 | ||
| GRMM4_TS_DEWT_082011.nc | 14-Oct-2024 18:12 | 1626516 | ||
| GRMM4_TS_DEWT_082012.nc | 14-Oct-2024 19:15 | 1625613 | ||
| GRMM4_TS_DEWT_082015.nc | 14-Oct-2024 20:32 | 1626472 | ||
| GRMM4_TS_DEWT_082016.nc | 14-Oct-2024 21:21 | 1476115 | ||
| GRMM4_TS_DEWT_082017.nc | 14-Oct-2024 22:24 | 1473054 | ||
| GRMM4_TS_DEWT_082018.nc | 14-Oct-2024 23:32 | 1470820 | ||
| GRMM4_TS_DEWT_082019.nc | 15-Oct-2024 00:36 | 1476456 | ||
| GRMM4_TS_DEWT_082020.nc | 15-Oct-2024 01:43 | 1476917 | ||
| GRMM4_TS_DEWT_082021.nc | 15-Oct-2024 02:48 | 1477097 | ||
| GRMM4_TS_DEWT_082022.nc | 15-Oct-2024 03:50 | 1477060 | ||
| GRMM4_TS_DEWT_082023.nc | 15-Oct-2024 04:46 | 1476343 | ||
| GRMM4_TS_DEWT_092006.nc | 14-Oct-2024 13:26 | 1477068 | ||
| GRMM4_TS_DEWT_092007.nc | 14-Oct-2024 14:21 | 1463095 | ||
| GRMM4_TS_DEWT_092008.nc | 14-Oct-2024 15:21 | 1476730 | ||
| GRMM4_TS_DEWT_092009.nc | 14-Oct-2024 16:15 | 1476318 | ||
| GRMM4_TS_DEWT_092010.nc | 14-Oct-2024 17:20 | 1476365 | ||
| GRMM4_TS_DEWT_092011.nc | 14-Oct-2024 18:17 | 1475593 | ||
| GRMM4_TS_DEWT_092012.nc | 14-Oct-2024 19:20 | 1471459 | ||
| GRMM4_TS_DEWT_092014.nc | 14-Oct-2024 19:37 | 1476871 | ||
| GRMM4_TS_DEWT_092015.nc | 14-Oct-2024 20:37 | 1476919 | ||
| GRMM4_TS_DEWT_092016.nc | 14-Oct-2024 21:26 | 1476315 | ||
| GRMM4_TS_DEWT_092017.nc | 14-Oct-2024 22:31 | 1624735 | ||
| GRMM4_TS_DEWT_092018.nc | 14-Oct-2024 23:38 | 1477440 | ||
| GRMM4_TS_DEWT_092019.nc | 15-Oct-2024 00:42 | 1474440 | ||
| GRMM4_TS_DEWT_092020.nc | 15-Oct-2024 01:48 | 1624988 | ||
| GRMM4_TS_DEWT_092021.nc | 15-Oct-2024 02:53 | 1626926 | ||
| GRMM4_TS_DEWT_092022.nc | 15-Oct-2024 03:55 | 1626978 | ||
| GRMM4_TS_DEWT_092023.nc | 15-Oct-2024 04:52 | 1626920 | ||
| GRMM4_TS_DEWT_102006.nc | 14-Oct-2024 13:32 | 1626875 | ||
| GRMM4_TS_DEWT_102007.nc | 14-Oct-2024 14:26 | 1626045 | ||
| GRMM4_TS_DEWT_102008.nc | 14-Oct-2024 15:26 | 1472427 | ||
| GRMM4_TS_DEWT_102009.nc | 14-Oct-2024 16:19 | 1626144 | ||
| GRMM4_TS_DEWT_102010.nc | 14-Oct-2024 17:26 | 1626825 | ||
| GRMM4_TS_DEWT_102011.nc | 14-Oct-2024 18:23 | 1624177 | ||
| GRMM4_TS_DEWT_102012.nc | 14-Oct-2024 19:25 | 1626508 | ||
| GRMM4_TS_DEWT_102014.nc | 14-Oct-2024 19:43 | 1626184 | ||
| GRMM4_TS_DEWT_102015.nc | 14-Oct-2024 20:42 | 1625420 | ||
| GRMM4_TS_DEWT_102016.nc | 14-Oct-2024 21:31 | 1474053 | ||
| GRMM4_TS_DEWT_102017.nc | 14-Oct-2024 22:36 | 1625403 | ||
| GRMM4_TS_DEWT_102018.nc | 14-Oct-2024 23:43 | 433910 | ||
| GRMM4_TS_DEWT_102019.nc | 15-Oct-2024 00:47 | 1627568 | ||
| GRMM4_TS_DEWT_102020.nc | 15-Oct-2024 01:53 | 1627173 | ||
| GRMM4_TS_DEWT_102021.nc | 15-Oct-2024 02:59 | 1625460 | ||
| GRMM4_TS_DEWT_102022.nc | 15-Oct-2024 04:00 | 1627351 | ||
| GRMM4_TS_DEWT_102023.nc | 15-Oct-2024 04:57 | 1465709 | ||
| GRMM4_TS_DEWT_112006.nc | 14-Oct-2024 13:38 | 1627754 | ||
| GRMM4_TS_DEWT_112007.nc | 14-Oct-2024 14:30 | 1627852 | ||
| GRMM4_TS_DEWT_112008.nc | 14-Oct-2024 15:31 | 1153340 | ||
| GRMM4_TS_DEWT_112009.nc | 14-Oct-2024 16:25 | 1473913 | ||
| GRMM4_TS_DEWT_112010.nc | 14-Oct-2024 17:32 | 1468903 | ||
| GRMM4_TS_DEWT_112011.nc | 14-Oct-2024 18:28 | 1470659 | ||
| GRMM4_TS_DEWT_112012.nc | 14-Oct-2024 19:32 | 1470332 | ||
| GRMM4_TS_DEWT_112014.nc | 14-Oct-2024 19:47 | 1474027 | ||
| GRMM4_TS_DEWT_112015.nc | 14-Oct-2024 20:47 | 1150510 | ||
| GRMM4_TS_DEWT_112016.nc | 14-Oct-2024 21:37 | 1470625 | ||
| GRMM4_TS_DEWT_112017.nc | 14-Oct-2024 22:42 | 1470302 | ||
| GRMM4_TS_DEWT_112018.nc | 14-Oct-2024 23:47 | 420847 | ||
| GRMM4_TS_DEWT_112019.nc | 15-Oct-2024 00:54 | 1626157 | ||
| GRMM4_TS_DEWT_112020.nc | 15-Oct-2024 01:57 | 1626013 | ||
| GRMM4_TS_DEWT_112021.nc | 15-Oct-2024 03:05 | 1627594 | ||
| GRMM4_TS_DEWT_112022.nc | 15-Oct-2024 04:03 | 1627324 | ||
| GRMM4_TS_DEWT_112023.nc | 15-Oct-2024 05:02 | 1627558 | ||
| GRMM4_TS_DEWT_122006.nc | 14-Oct-2024 13:42 | 1160128 | ||
| GRMM4_TS_DEWT_122007.nc | 14-Oct-2024 14:36 | 1627430 | ||
| GRMM4_TS_DEWT_122008.nc | 14-Oct-2024 15:36 | 1627860 | ||
| GRMM4_TS_DEWT_122009.nc | 14-Oct-2024 16:30 | 1476793 | ||
| GRMM4_TS_DEWT_122010.nc | 14-Oct-2024 17:39 | 1474699 | ||
| GRMM4_TS_DEWT_122011.nc | 14-Oct-2024 18:35 | 1476514 | ||
| GRMM4_TS_DEWT_122014.nc | 14-Oct-2024 19:52 | 1477721 | ||
| GRMM4_TS_DEWT_122015.nc | 14-Oct-2024 20:53 | 1477762 | ||
| GRMM4_TS_DEWT_122016.nc | 14-Oct-2024 21:43 | 1477662 | ||
| GRMM4_TS_DEWT_122017.nc | 14-Oct-2024 22:47 | 1477743 | ||
| GRMM4_TS_DEWT_122018.nc | 14-Oct-2024 23:53 | 1477151 | ||
| GRMM4_TS_DEWT_122019.nc | 15-Oct-2024 00:59 | 1627484 | ||
| GRMM4_TS_DEWT_122020.nc | 15-Oct-2024 02:02 | 1627422 | ||
| GRMM4_TS_DEWT_122021.nc | 15-Oct-2024 03:10 | 1474173 | ||
| GRMM4_TS_DEWT_122022.nc | 15-Oct-2024 04:08 | 1627387 | ||
| GRMM4_TS_DEWT_122023.nc | 15-Oct-2024 05:07 | 1627659 | ||